Regional Weather Roundup
Issued by NWS

Home | Current Version | Previous Version | Graphics & Text | Print | Product List | Glossary On
Versions: 1 2 3 4 5 6 7 8 9 10 11 12 13 14 15 16 17 18 19 20 21 22 23 24 25 26 27 28 29 30 31 32 33 34 35 36 37 38 39 40 41 42 43 44 45 46 47 48 49 50
000
ASUS43 KMPX 031410
RWRMN
WEATHER ROUNDUP FOR MINNESOTA
NATIONAL WEATHER SERVICE TWIN CITIES/CHANHASSEN MN
900 AM CDT FRI JUL 03 2015


NOTE: "FAIR" INDICATES FEW OR NO CLOUDS BELOW 12,000 FEET WITH NO
SIGNIFICANT WEATHER AND/OR OBSTRUCTIONS TO VISIBILITY. N/A MEANS
CURRENT SKY AND/OR WEATHER CONDITIONS ARE NOT AVAILABLE.

MNZ060>063-068>070-031500-
   Twin Cities Metro

CITY           SKY/WX    TMP DP  RH WIND       PRES   REMARKS
TWIN CITIES    MOSUNNY   66  55  67 SW5       29.98F
ST PAUL        SUNNY     66  58  75 SW6       29.98S
CRYSTAL        SUNNY     70  55  59 W5        29.96F
BLAINE         SUNNY     70  57  64 CALM      29.97F
LAKEVILLE      SUNNY     63  55  77 W5        29.99S
EDEN PRAIRIE   SUNNY     64  58  80 SW3       29.98S
SOUTH ST PAUL  SUNNY     66  55  68 W6        29.98S
LAKE ELMO      FAIR      66  59  77 W5        29.99S
$$
MNZ001>005-007-008-013>017-022>024-027-028-031500-
   Northwest Minnesota

CITY           SKY/WX    TMP DP  RH WIND       PRES   REMARKS
BEMIDJI        CLOUDY    66  63  90 NW9       29.94R FOG
HALLOCK          N/A     64  64 100 CALM      29.93R FOG
ROSEAU         SUNNY     66  61  82 W3        29.92S HAZE
WARROAD        SUNNY     66  63  88 NW6       29.92R FOG
THIEF RVR FALL CLOUDY    64  63  94 NW3       29.94S
CROOKSTON      SUNNY     66  66 100 CALM      29.94S FOG
FOSSTON        CLOUDY    64  61  88 CALM      29.96R FOG
DETROIT LAKES  CLOUDY    66  63  88 NW6       29.96F
MOORHEAD       SUNNY     64  63  94 CALM      29.95S
PARK RAPIDS    CLOUDY    66  61  84 W7        29.94S
MAHNOMEN       CLOUDY    65  63  92 CALM      29.95S FOG
$$
MNZ006-009>011-018-025>026-031500-
   North Central Minnesota

CITY           SKY/WX    TMP DP  RH WIND       PRES   REMARKS
BAUDETTE       MOSUNNY   68  62  81 NW8       29.90R HAZE
FLAG ISLAND    SUNNY     66  63  88 NW6       29.90R FOG
INTL FALLS     CLOUDY    67  63  87 NW7       29.88S FOG
WASKISH        MOSUNNY   70  64  83 W6        29.91S FOG
BIG FORK       CLOUDY    68  63  83 W5        29.92R HAZE
LONGVILLE      MOSUNNY   66  61  82 W3        29.94R
GRAND RAPIDS   MOSUNNY   66  57  72 W6        29.92F
ORR            MOSUNNY   66  57  72 CALM      29.87S
COOK           MOSUNNY   66  59  77 W6        29.90S
WALKER         CLOUDY    65  61  87 W5        29.93S
$$
MNZ012-019>021-037-031500-
   Northeast Minnesota

CITY           SKY/WX    TMP DP  RH WIND       PRES   REMARKS
DULUTH         MOSUNNY   65  56  72 W13       29.91S
ELY            PTSUNNY   64  57  77 W5        29.89S
HIBBING        CLOUDY    68  59  73 W5        29.90S
DULUTH HARBOR  PTSUNNY   66  57  72 SW13      29.90S
TWO HARBORS    PTSUNNY   70  59  68 W5        29.88S
SILVER BAY     PTSUNNY   68  57  68 CALM      29.86F
GRAND MARAIS     N/A     52  49  89 W7        29.83F
G MARAIS ARPRT MOSUNNY   64  55  72 W5        29.87S
$$
MNZ029>031-032-039>041-046>048-054>057-064-031500-
   West Central Minnesota

CITY           SKY/WX    TMP DP  RH WIND       PRES   REMARKS
FERGUS FALLS   SUNNY     64  63  94 W5        29.96S
WHEATON        SUNNY     66  63  88 SW5       29.98S
MORRIS         SUNNY     66  63  88 W5        29.97R
ALEXANDRIA     MOSUNNY   66  59  78 W7        29.98F
ELBOW LAKE     FAIR      64  60  86 SW6       29.96F
WADENA         SUNNY     64  59  82 W5        29.95S
GLENWOOD       SUNNY     64  59  82 SW7       29.99S
APPLETON         N/A     66  59  77 SW5       29.97S
BENSON         SUNNY     64  57  77 CALM      29.98S
ORTONVILLE     SUNNY     64  59  82 CALM      29.97S
MADISON        SUNNY     66  57  72 W5        29.98F
WILLMAR        FAIR      63  61  94 W3        30.00S
$$
MNZ033>034-036-042>043-049>051-058-059-031500-
   Central Minnesota

CITY           SKY/WX    TMP DP  RH WIND       PRES   REMARKS
ST CLOUD       SUNNY     65  58  78 SW3       29.96F
SAUK CENTRE    PTSUNNY   64  59  83 W3        29.97F
PAYNESVILLE    SUNNY     63  56  80 SW7       29.98F
AITKIN         MOSUNNY   64  55  72 SW3       29.92S
PINE RIVER     SUNNY     64  59  82 W7        29.97S
BRAINERD       SUNNY     66  57  72 W7        29.95S
STAPLES        SUNNY     66  59  77 W9        29.95S
LONG PRAIRIE   FAIR      63  57  82 SW6       29.97S
LITTLE FALLS   SUNNY     63  54  72 SW3       29.96S
LITCHFIELD     SUNNY     66  61  82 W5        29.99S
BUFFALO        SUNNY     65  56  72 SW3       29.99S
MAPLE LAKE     SUNNY     66  59  77 W5        29.99S
$$
MNZ037-044-045-052-053-031500-
   East Central Minnesota

CITY           SKY/WX    TMP DP  RH WIND       PRES   REMARKS
PRINCETON      SUNNY     66  57  72 SW5       29.96F
MORA           MOSUNNY   61  52  72 CALM      29.97S
CAMBRIDGE      MOSUNNY   66  54  63 SW3       29.95S
RUSH CITY      MOSUNNY   64  56  75 SW3       29.96F
MOOSE LAKE     PTSUNNY   61  59  94 CALM      29.92S
HINCKLEY       FAIR      63  55  77 W5        29.95S
CLOQUET        PTSUNNY   66  54  63 W7        29.92S
MCGREGOR       MOSUNNY   64  55  72 W6        29.94S
$$
MNZ071>073-080-081-089-090-097-098-031500-
   Southwest Minnesota

CITY           SKY/WX    TMP DP  RH WIND       PRES   REMARKS
MONTEVIDEO     SUNNY     66  61  82 CALM      29.99F
GRANITE FALLS  SUNNY     62  59  88 CALM      30.01S FOG
CANBY          SUNNY     67  58  73 W6        30.00S
MARSHALL       SUNNY     64  55  72 W7        29.99F
REDWOOD FALLS  SUNNY     65  57  75 W5        30.00S
OLIVIA         SUNNY     59  54  82 SW5       29.99S
PIPESTONE      MOSUNNY   63  57  82 W6        30.03R
WINDOM         SUNNY     64  57  77 W8        30.02S
WORTHINGTON    SUNNY     63  57  82 W7        30.03S
JACKSON        SUNNY     64  61  88 W6        30.02S
TRACY          SUNNY     66  59  78 W6        30.01F
SLAYTON        SUNNY     63  59  86 CALM      30.04R
$$
MNZ065>067-074>077-082>085-091>093-031500-
   South Central Minnesota

CITY           SKY/WX    TMP DP  RH WIND       PRES   REMARKS
MANKATO        SUNNY     63  54  72 W6        30.01S
NEW ULM        SUNNY     61  57  88 CALM      30.01R
ST JAMES       SUNNY     66  61  82 W3        30.02S
FAIRMONT       SUNNY     66  55  68 NW5       30.01S
GLENCOE        SUNNY     64  58  79 SW6       29.99S
FARIBAULT      SUNNY     64  57  77 SW3       30.00F
OWATONNA       SUNNY     63  55  77 W3        30.01S
WASECA         SUNNY     63  55  77 CALM      30.03S
ALBERT LEA     SUNNY     66  54  63 NW7       30.01S
$$
MNZ078>079-086>088-094>096-031500-
   Southeast Minnesota

CITY           SKY/WX    TMP DP  RH WIND       PRES   REMARKS
ROCHESTER      SUNNY     64  56  75 NW7       30.02S
RED WING       SUNNY     64  57  77 CALM      29.98S
STANTON        SUNNY     64  55  72 SW3       29.98F
DODGE CENTER   SUNNY     64  55  72 NW7       30.01S
WINONA         SUNNY     63  57  82 CALM      29.99F
AUSTIN         SUNNY     66  55  68 NW5       30.01S
PRESTON        SUNNY     63  55  74 NW5       30.02R
$$
ABBREVIATIONS USED IN REMARKS
   TC - TEMPERATURES IN CELSIUS
  WCI - WIND CHILL INDEX
   HX - HEAT INDEX
  VSB - VISIBILITY
$$



USA.gov is the U.S. government's official web portal to all federal, state and local government web resources and services.